Regional Weather Roundup
Issued by NWS

Home | Current Version | Previous Version | Graphics & Text | Print | Product List | Glossary On
Versions: 1 2 3 4 5 6 7 8 9 10 11 12 13 14 15 16 17 18 19 20 21 22 23 24 25 26 27 28 29 30 31 32 33 34 35 36 37 38 39 40 41 42 43 44 45 46 47 48 49 50
000
ASUS44 KMEG 120300
RWRTN
TENNESSEE HOURLY STATE WEATHER ROUNDUP
NATIONAL WEATHER SERVICE MEMPHIS TN
900 PM CST MON DEC 11 2017

TNZ002-004-019-021-049-052-054-088>092-120400-
WEST TENNESSEE

CITY           SKY/WX    TMP DP  RH WIND       PRES   REMARKS
MEMPHIS INTL   CLEAR     55  28  35 N13       29.99R
NWS MEMPHIS      N/A     56 N/A N/A MISG        N/A
JACKSON        CLEAR     53  30  41 NW14      29.96R
DYERSBURG      MOCLDY    53  27  36 N12       29.96R
$$

TNZ008-025-027-028-033-062-065-066-120400-
NORTH MIDDLE TENNESSEE

CITY           SKY/WX    TMP DP  RH WIND       PRES   REMARKS
NASHVILLE      CLOUDY    54  30  40 SW10      29.87R
CLARKSVILLE    PTCLDY    49  25  39 N8        29.90R
SMYRNA         CLOUDY    54  31  41 SW12      29.88S
CROSSVILLE     PTCLDY    45  29  53 SW8       29.88F
$$

TNZ061-075-076-078-094-096-097-120400-
SOUTH MIDDLE TENNESSEE

CITY           SKY/WX    TMP DP  RH WIND       PRES   REMARKS
$$

TNZ017-018-042-046-047-120400-
NORTHEAST TENNESSEE

CITY           SKY/WX    TMP DP  RH WIND       PRES   REMARKS
TRI CITIES     CLOUDY    33  29  85 N3        29.87F
$$

TNZ012-013-036-069-073-074-120400-
CENTRAL EAST TENNESSEE

CITY           SKY/WX    TMP DP  RH WIND       PRES   REMARKS
KNOXVILLE      MOCLDY    49  33  54 SW16      29.87S
OAK RIDGE      CLEAR     45  34  65 CALM      29.91S
$$

TNZ083-085-099-120400-
SOUTHEAST TENNESSEE

CITY           SKY/WX    TMP DP  RH WIND       PRES   REMARKS
CHATTANOOGA    CLEAR     41  32  70 CALM      29.94S
$$

SKY/WX REPORTED AS FAIR MEANS FEW OR NO CLOUDS BELOW
12 THOUSAND FEET.




USA.gov is the U.S. government's official web portal to all federal, state and local government web resources and services.